TimeCEST,TemperatureF,Dew PointF,Humidity,Sea Level PressureIn,VisibilityMPH,Wind Direction,Wind SpeedMPH,Gust SpeedMPH,PrecipitationIn,Events,Conditions,WindDirDegrees,DateUTC
12:00 AM,86.0,48.2,27,30.01,-9999.0,WSW,4.6,-,N/A,,Clear,250,2013-08-19 22:00:00
2:00 AM,80,49,24,30.03,,West,3.5,,,,,270,2013-08-20 00:00:00
7:00 AM,71.6,53.6,53,30.04,-9999.0,Calm,Calm,-,N/A,,Clear,0,2013-08-20 05:00:00
8:00 AM,70,56,51,30.06,31,Calm,Calm,,,,,,2013-08-20 06:00:00
8:00 AM,69.8,53.6,56,30.06,-9999.0,Calm,Calm,-,N/A,,Clear,0,2013-08-20 06:00:00
9:00 AM,75.2,53.6,47,30.06,-9999.0,East,1.2,-,N/A,,Clear,90,2013-08-20 07:00:00
10:00 AM,80.6,51.8,37,30.06,-9999.0,East,6.9,-,N/A,,Clear,90,2013-08-20 08:00:00
11:00 AM,86.0,51.8,31,30.06,-9999.0,ENE,3.5,-,N/A,,Clear,70,2013-08-20 09:00:00
12:00 PM,91.4,50.0,24,30.06,-9999.0,Variable,2.3,-,N/A,,Clear,0,2013-08-20 10:00:00
1:00 PM,96.8,50.0,20,30.04,-9999.0,Calm,Calm,-,N/A,,Clear,0,2013-08-20 11:00:00
2:00 PM,102,42,7,30.01,31,NE,1.2,,,,,40,2013-08-20 12:00:00
2:00 PM,100.4,48.2,17,30.04,-9999.0,East,1.2,-,N/A,,Clear,80,2013-08-20 12:00:00
3:00 PM,102.2,46.4,15,30.01,-9999.0,West,3.5,-,N/A,,Clear,270,2013-08-20 13:00:00
4:00 PM,104.0,44.6,13,29.98,-9999.0,West,5.8,-,N/A,,Clear,270,2013-08-20 14:00:00
5:00 PM,105.8,46.4,14,29.95,-9999.0,West,5.8,-,N/A,,Clear,270,2013-08-20 15:00:00
6:00 PM,104.0,48.2,15,29.95,-9999.0,West,4.6,-,N/A,,Clear,280,2013-08-20 16:00:00
7:00 PM,104.0,50.0,16,29.95,-9999.0,West,6.9,-,N/A,,Clear,260,2013-08-20 17:00:00
8:00 PM,103,44,7,29.93,31,SW,8.1,,,,,230,2013-08-20 18:00:00
8:00 PM,102.2,46.4,15,29.95,-9999.0,SW,8.1,-,N/A,,Clear,230,2013-08-20 18:00:00
9:00 PM,95.0,48.2,20,29.95,-9999.0,SW,6.9,-,N/A,,Clear,220,2013-08-20 19:00:00